Location: Châteauvieux
(47.2310°N, 1.3828°E)
Time: 02:59:51
(UTC+00:00)

Cosmos 1461 - Pass Details

Date: 15 May 2026
Orbit: 422 x 476 km, 65.0° (Epoch: 8 June)

Event Time Altitude Azimuth Distance (km) Brightness Sun altitude
Rises 21:20:26 0° 233° (SW) 2,534 6.2 -15.6°
Reaches altitude 10° 21:22:39 10° 240° (WSW) 1,657 5.3 -15.8°
Maximum altitude 21:26:11 42° 313° (NW) 694 3.9 -16.2°
Drops below altitude 10° 21:29:43 10° 26° (NNE) 1,652 5.6 -16.5°
Sets 21:31:55 0° 33° (NNE) 2,525 6.5 -16.7°
